Flag for Germany Weather past 2 weeks in Suhl, Thuringia, Germany

Now
58 °F

Overcast.


Feels Like: 58 °F
Forecast: 59 / 86 °F
Wind: 1 mph from Northeast

Location: Meiningen

Current Time: Aug 29, 2015 at 11:39:54 AM

Latest Report: Aug 29, 2015 at 10:00 AM


Visibility: 22 mi

Pressure: 30.26 "Hg

Humidity: 93%

Dew point: 56 °F

Location of SuhlLocation

Historic Weather in Suhl — Graph

°F

Suhl temperature yesterday

Maximum temperature yesterday: 65 °F (at 2:00 AM)
Minimum temperature yesterday: 57 °F (at 10:00 AM)
Average temperature yesterday: 62 °F

Past Weeks' High & Low Weather Summary

 TemperatureHumidityPressure
High83 °F (Aug 14, 4:00 PM)100% (Aug 21, 2:00 AM)30.33 "Hg (Aug 21, 2:00 AM)
Low46 °F (Aug 19, 6:00 AM)30% (Aug 22, 3:00 PM)29.68 "Hg (Aug 24, 3:00 PM)
Average63 °F74%29.98 "Hg
* Reported Aug 14 9:00 AM — Aug 29 9:00 AM, Suhl, Weather by CustomWeather, © 2015

Note: Actual official high and low records may vary slightly from our data, if they occured in-between our weather recording intervals... More about our weather records

Advertising

Suhl weather history for previous 24 hours

 ConditionsComfort  
Time TempWeatherWind HumidityBarometerVisibility
9:00 AM
Sat, Aug 29
55 °FOvercast.1 mph98%30.26 "Hg17 mi
8:00 AM53 °FLow clouds.1 mph100%30.27 "Hg2 mi
7:00 AM51 °FLow clouds.1 mph100%30.26 "Hg0 mi
6:00 AM52 °FPassing clouds.1 mph100%30.25 "Hg0 mi
4:00 AM53 °FClear.1 mph100%30.24 "Hg0 mi
3:00 AM54 °FPassing clouds.1 mph100%30.23 "Hg0 mi
2:00 AM55 °FClear.1 mph100%30.22 "Hg0 mi
1:00 AM56 °FClear.1 mph99%30.21 "Hg0 mi
10:00 PM
Fri, Aug 28
62 °FPassing clouds.2 mph91%30.16 "Hg25 mi
9:00 PM62 °FPassing clouds.1 mph95%30.14 "Hg17 mi
8:00 PM64 °FPartly sunny.1 mph90%30.12 "Hg16 mi
7:00 PM64 °FLow clouds.1 mph90%30.11 "Hg19 mi
6:00 PM64 °FLow clouds.1 mph91%30.10 "Hg28 mi
4:00 PM62 °FDrizzle. Low clouds.1 mph97%30.09 "Hg3 mi
3:00 PM64 °FDrizzle. Low clouds.1 mph93%30.07 "Hg34 mi
2:00 PM62 °FDrizzle. Low clouds.1 mph94%30.07 "Hg2 mi
1:00 PM60 °FLight freezing rain. Low clouds.1 mph94%30.06 "Hg2 mi
12:00 PM59 °FLow clouds.1 mph92%30.06 "Hg19 mi
Weather by CustomWeather, © 2015

See weather overviewHow to use our weather pages